TimeEDT,TemperatureF,Dew PointF,Humidity,Sea Level PressureIn,VisibilityMPH,Wind Direction,Wind SpeedMPH,Gust SpeedMPH,PrecipitationIn,Events,Conditions,WindDirDegrees,DateUTC
12:58 AM,29.8,26.8,88,29.74,10.0,SW,3.5,-,N/A,,Clear,230,2013-10-24 04:58:00
1:58 AM,28.4,26.4,92,29.73,10.0,South,5.8,-,N/A,,Clear,190,2013-10-24 05:58:00
2:43 AM,32.0,28.4,87,29.71,10.0,Variable,4.6,-,N/A,,Mostly Cloudy,0,2013-10-24 06:43:00
2:53 AM,32.0,28.4,87,29.71,10.0,South,3.5,-,N/A,,Overcast,190,2013-10-24 06:53:00
2:58 AM,32.0,28.9,88,29.73,10.0,South,5.8,-,0.00,,Overcast,170,2013-10-24 06:58:00
3:58 AM,30.7,28.2,90,29.72,10.0,SSW,3.5,-,N/A,,Partly Cloudy,200,2013-10-24 07:58:00
4:58 AM,32.5,29.7,89,29.72,10.0,SW,5.8,-,N/A,,Clear,230,2013-10-24 08:58:00
5:58 AM,34.2,32.4,93,29.74,10.0,West,2.3,-,N/A,,Scattered Clouds,270,2013-10-24 09:58:00
6:23 AM,32.0,32.0,100,29.72,10.0,West,2.3,-,N/A,,Mostly Cloudy,260,2013-10-24 10:23:00
6:48 AM,32.0,32.0,100,29.72,10.0,WSW,3.5,-,N/A,,Scattered Clouds,240,2013-10-24 10:48:00
6:58 AM,33.3,32.2,96,29.74,10.0,SW,3.5,-,N/A,,Partly Cloudy,230,2013-10-24 10:58:00
7:18 AM,32.0,32.0,100,29.73,10.0,Variable,3.5,-,N/A,,Mostly Cloudy,0,2013-10-24 11:18:00
7:33 AM,32.0,32.0,100,29.73,10.0,SW,2.3,-,N/A,,Overcast,220,2013-10-24 11:33:00
7:58 AM,34.2,33.1,96,29.75,10.0,SSW,3.5,-,N/A,,Mostly Cloudy,210,2013-10-24 11:58:00
8:58 AM,36.3,34.7,94,29.76,10.0,Variable,3.5,-,N/A,,Mostly Cloudy,0,2013-10-24 12:58:00
9:58 AM,41.4,36.1,82,29.76,10.0,West,15.0,23.0,N/A,,Overcast,260,2013-10-24 13:58:00
10:03 AM,41.0,35.6,81,29.74,10.0,West,10.4,23.0,N/A,,Overcast,260,2013-10-24 14:03:00
10:28 AM,42.8,35.6,76,29.75,10.0,West,12.7,18.4,N/A,,Overcast,280,2013-10-24 14:28:00
10:54 AM,42.8,35.6,76,29.75,10.0,WNW,10.4,18.4,N/A,,Light Drizzle,290,2013-10-24 14:54:00
10:58 AM,41.9,35.8,79,29.77,10.0,West,12.7,23.0,0.00,,Light Drizzle,280,2013-10-24 14:58:00
11:11 AM,42.8,35.6,76,29.75,10.0,West,13.8,17.3,N/A,,Overcast,270,2013-10-24 15:11:00
11:31 AM,42.8,37.4,81,29.74,10.0,WNW,9.2,-,N/A,,Scattered Clouds,290,2013-10-24 15:31:00
11:36 AM,44.6,37.4,76,29.75,10.0,WNW,11.5,16.1,N/A,Rain,Light Rain,290,2013-10-24 15:36:00
11:51 AM,41.0,37.4,87,29.75,10.0,WNW,10.4,17.3,N/A,,Light Drizzle,290,2013-10-24 15:51:00
11:58 AM,41.4,36.7,83,29.76,10.0,West,12.7,-,0.00,,Light Drizzle,280,2013-10-24 15:58:00
12:03 PM,41.0,37.4,87,29.75,10.0,West,13.8,-,N/A,,Scattered Clouds,280,2013-10-24 16:03:00
12:53 PM,44.6,33.8,66,29.73,10.0,West,10.4,21.9,N/A,,Mostly Cloudy,280,2013-10-24 16:53:00
12:58 PM,44.8,33.6,65,29.75,10.0,West,12.7,21.9,0.00,,Overcast,280,2013-10-24 16:58:00
1:12 PM,44.6,33.8,66,29.74,10.0,WNW,11.5,18.4,N/A,Rain,Light Rain,300,2013-10-24 17:12:00
1:21 PM,44.6,33.8,66,29.73,10.0,West,13.8,20.7,N/A,,Mostly Cloudy,270,2013-10-24 17:21:00
1:30 PM,44.6,33.8,66,29.74,10.0,NW,10.4,24.2,N/A,,Light Drizzle,310,2013-10-24 17:30:00
1:46 PM,42.8,35.6,76,29.74,10.0,West,8.1,17.3,N/A,,Mostly Cloudy,280,2013-10-24 17:46:00
1:55 PM,42.8,35.6,76,29.74,10.0,WNW,13.8,18.4,N/A,,Light Drizzle,290,2013-10-24 17:55:00
1:58 PM,42.4,35.1,75,29.77,10.0,WNW,10.4,18.4,0.00,,Light Drizzle,290,2013-10-24 17:58:00
2:08 PM,41.0,35.6,81,29.74,10.0,West,8.1,-,N/A,Rain,Light Rain,260,2013-10-24 18:08:00
2:09 PM,41.0,35.6,81,29.75,10.0,West,8.1,-,N/A,,Mostly Cloudy,260,2013-10-24 18:09:00
2:14 PM,42.8,35.6,76,29.74,10.0,West,6.9,-,N/A,,Mostly Cloudy,270,2013-10-24 18:14:00
2:39 PM,42.8,33.8,70,29.75,10.0,West,9.2,17.3,N/A,,Mostly Cloudy,270,2013-10-24 18:39:00
2:58 PM,43.0,33.3,69,29.77,10.0,West,10.4,18.4,0.00,,Mostly Cloudy,270,2013-10-24 18:58:00
3:58 PM,43.5,34.3,70,29.80,10.0,WNW,10.4,-,N/A,,Mostly Cloudy,290,2013-10-24 19:58:00
3:59 PM,42.8,33.8,70,29.78,10.0,WNW,9.2,-,N/A,,Light Drizzle,300,2013-10-24 19:59:00
4:14 PM,42.8,33.8,70,29.78,10.0,West,6.9,-,N/A,,Mostly Cloudy,280,2013-10-24 20:14:00
4:58 PM,43.0,33.4,69,29.82,10.0,Variable,5.8,-,0.00,,Mostly Cloudy,0,2013-10-24 20:58:00
5:58 PM,42.1,32.0,67,29.84,10.0,WNW,5.8,-,N/A,,Clear,300,2013-10-24 21:58:00
6:58 PM,40.8,32.2,71,29.86,10.0,WNW,5.8,-,N/A,,Mostly Cloudy,290,2013-10-24 22:58:00
7:58 PM,40.8,31.3,69,29.88,10.0,WNW,5.8,-,N/A,,Partly Cloudy,300,2013-10-24 23:58:00
8:58 PM,39.6,31.3,72,29.90,10.0,Variable,3.5,-,N/A,,Overcast,0,2013-10-25 00:58:00
9:05 PM,39.2,32.0,75,29.88,10.0,Variable,4.6,-,N/A,,Light Drizzle,0,2013-10-25 01:05:00
9:14 PM,39.2,32.0,75,29.88,10.0,NNW,3.5,-,N/A,,Mostly Cloudy,340,2013-10-25 01:14:00
9:39 PM,39.2,32.0,75,29.89,10.0,Variable,1.2,-,N/A,,Overcast,0,2013-10-25 01:39:00
9:58 PM,38.8,32.9,79,29.92,10.0,NNW,5.8,-,0.00,,Overcast,340,2013-10-25 01:58:00
10:03 PM,39.2,32.0,75,29.90,10.0,Variable,5.8,-,N/A,,Overcast,0,2013-10-25 02:03:00
10:58 PM,37.9,32.0,79,29.94,10.0,NW,2.3,-,N/A,,Overcast,320,2013-10-25 02:58:00
11:58 PM,37.2,32.0,81,29.95,10.0,Variable,4.6,-,N/A,,Overcast,0,2013-10-25 03:58:00